Location: Newark
(41.9000°N, 12.4833°E)
Time: 21:33:45
(UTC+00:00)

EO-79 - Pass Details

Date: 19 May 2019
Orbit: 591 x 611 km, 97.9° (Epoch: 19 June)

Event Time Altitude Azimuth Distance (km) Brightness Sun altitude
Rises 22:49:26 0° 26° (NNE) 2,842 ? -28.1°
Reaches altitude 10° 22:51:59 10° 42° (NE) 1,933 ? -28.1°
Enters shadow 22:53:52 19° 65° (ENE) 1,433 ? -28.2°
